• Currently

    Reported at Minneapolis, Minneapolis-St. Paul International Airport, MN
    6:53 PM CST WED APR 26 2017
  • 39°F4°C
  • Drizzle
    Drizzle
  • Feels Like:33°F0°CDew Point:32°F0°CHumidity:75% Winds:N 12 mph 19 kph
    Pressure:29.56 in1001 hPaVisibility:10.00 miles16090.00 meters
Time Weather Temp Dew Point
Humidity Winds Visibility Pressure Precipitation
1 hr 24 hr
Tuesday, April 25
23:53 23:53 Cloudy With Light Rain Cloudy With Light Rain 61°F16°C 42°F6°C 50% S 7 mphS 11 kph 9.0 miles14.5 km 29.56 in1001 hPa 0.02 in12.90 mm --
22:53 22:53 Cloudy Cloudy 66°F19°C 31°F-1°C 27% S 6 mphS 9 kph 10.0 miles16.1 km 29.56 in1001 hPa 0.00 in0.00 mm --
21:53 21:53 Cloudy Cloudy 66°F19°C 31°F-1°C 27% SSE 14 mphSSE 22 kph 10.0 miles16.1 km 29.56 in1001 hPa 0.00 in0.00 mm --
20:53 20:53 Cloudy Cloudy 66°F19°C 33°F1°C 29% SSE 12 mphSSE 19 kph 10.0 miles16.1 km 29.56 in1001 hPa 0.00 in0.00 mm --
19:53 19:53 Cloudy Cloudy 68°F20°C 31°F-1°C 25% S 13 mphS 20 kph 10.0 miles16.1 km 29.56 in1001 hPa 0.00 in0.00 mm --
18:53 18:53 Cloudy Cloudy 67°F19°C 34°F1°C 30% S 12 mphS 19 kph 10.0 miles16.1 km 29.56 in1001 hPa 0.00 in0.00 mm --
17:53 17:53 Cloudy Cloudy 68°F20°C 31°F-1°C 25% SSE 9 mphSSE 15 kph 10.0 miles16.1 km 29.59 in1002 hPa 0.00 in0.00 mm --
16:53 16:53 Cloudy Cloudy 69°F21°C 28°F-2°C 22% S 16 mphS 26 kph 10.0 miles16.1 km 29.62 in1003 hPa 0.00 in0.00 mm --
15:53 15:53 Cloudy Cloudy 70°F21°C 27°F-3°C 20% S 18 mphS 30 kph 10.0 miles16.1 km 29.62 in1003 hPa 0.00 in0.00 mm --
14:53 14:53 Cloudy Cloudy 71°F22°C 27°F-3°C 19% S 22 mphS 35 kph 10.0 miles16.1 km 29.62 in1003 hPa 0.00 in0.00 mm --
13:53 13:53 Cloudy Cloudy 69°F21°C 32°F0°C 25% S 20 mphS 31 kph 10.0 miles16.1 km 29.65 in1004 hPa 0.00 in0.00 mm --
12:53 12:53 Cloudy Cloudy 66°F19°C 32°F0°C 28% SSE 22 mphSSE 35 kph 10.0 miles16.1 km 29.71 in1006 hPa 0.00 in0.00 mm --
11:53 11:53 Cloudy Cloudy 64°F18°C 33°F1°C 32% S 18 mphS 30 kph 10.0 miles16.1 km 29.74 in1007 hPa 0.00 in0.00 mm --
10:53 10:53 Cloudy Cloudy 62°F17°C 33°F1°C 34% S 17 mphS 28 kph 10.0 miles16.1 km 29.74 in1007 hPa 0.00 in0.00 mm --
09:53 09:53 Mostly Cloudy Mostly Cloudy 61°F16°C 35°F2°C 38% S 15 mphS 24 kph 10.0 miles16.1 km 29.77 in1008 hPa 0.00 in0.00 mm --
08:53 08:53 Mostly Cloudy Mostly Cloudy 58°F14°C 35°F2°C 42% S 12 mphS 19 kph 10.0 miles16.1 km 29.8 in1009 hPa 0.00 in0.00 mm --
07:53 07:53 Cloudy Cloudy 56°F13°C 34°F1°C 44% S 9 mphS 15 kph 10.0 miles16.1 km 29.8 in1009 hPa 0.00 in0.00 mm --
06:53 06:53 Cloudy Cloudy 55°F13°C 33°F1°C 44% S 9 mphS 15 kph 10.0 miles16.1 km 29.8 in1009 hPa 0.00 in0.00 mm --
05:53 05:53 Mostly Cloudy Mostly Cloudy 56°F13°C 33°F1°C 42% SSE 8 mphSSE 13 kph 10.0 miles16.1 km 29.8 in1009 hPa 0.00 in0.00 mm --
04:53 04:53 Partly Cloudy Partly Cloudy 55°F13°C 33°F1°C 44% SSE 9 mphSSE 15 kph 10.0 miles16.1 km 29.83 in1010 hPa 0.00 in0.00 mm --
03:53 03:53 Partly Cloudy Partly Cloudy 50°F10°C 37°F3°C 61% SE 5 mphSE 7 kph 10.0 miles16.1 km 29.83 in1010 hPa 0.00 in0.00 mm --
02:53 02:53 Partly Cloudy Partly Cloudy 50°F10°C 39°F4°C 66% ENE 3 mphENE 6 kph 10.0 miles16.1 km 29.83 in1010 hPa 0.00 in0.00 mm --
01:53 01:53 Partly Cloudy Partly Cloudy 50°F10°C 39°F4°C 66% ENE 3 mphENE 6 kph 10.0 miles16.1 km 29.85 in1011 hPa 0.00 in0.00 mm --
00:53 00:53 Partly Cloudy Partly Cloudy 51°F11°C 39°F4°C 64% NE 5 mphNE 7 kph 10.0 miles16.1 km 29.88 in1012 hPa 0.00 in0.00 mm --